SL-16 DEB, 22502

Orbit data source: Space-Track

SL-16 DEB, 22502 is space debris in LEO originally from a launch on Fri, 25 Dec 1992 UTC launched from the Tyuratam Missile And Space Complex (TTMTR). Debris objects in space refer to the collection of defunct objects orbiting the Earth. Examples of debris include non-operational satellites, rocket bodies, and fragments generated from explosions, collisions, or faulty payload assembly.

Loading next visibility...
Identifier
22502, 1992-093GM
Orbit
LEO
Country
Flag of CISCIS
Related business
Manufacturer
Unknown
Mission
Spacecraft
Bus & Motor
Unknown
Mass
Unknown
Launch date (UTC)
1992-12-25 (33 years ago)
Launch vehicle
Unknown
Launch site
Tyuratam Missile And Space Complex (TTMTR)
Object type
Payload
Rocket body
Debris
Shape & HBR
Unknown shape, 0.1 m
Radar Cross Section
Small (<0.1 m²)

Expand to show TLE details & history
Last TLE update: 7 hours ago

TLE from 7 hours ago
0 SL-16 DEB
1 22502U 92093GM  26132.82368198  .00000119  00000-0  12305-3 0  9998
2 22502  70.8176  45.4431 0152692 343.4451  73.1309 13.89706942689434
Epoch: 2026-05-12T19:46Z
TLE epoch observation values (Epoch: 2026-05-12T19:46:06.123Z)
Latitude
53.55008°
Longitude
-93.73545°
Altitude
907.061 km
Speed
7.419 km/s
True Right ascension
04h 53m 31s
True Declination
53° 23' 20"
Sunlit
Object was in daylight at epoch
Visualization orbit readout
Latitude
Unknown
Longitude
Unknown
Altitude
Unknown
Speed
Unknown
Apparent Right ascension
Unknown
Apparent Declination
Unknown
Sunlit
N/A
Visualization observer readout
Local Sidereal Time
11:29:20
Azimuth
Unknown
Elevation
Unknown
Doppler factor
Unknown
Orbital elements
Apogee altitude
1,039.178 km
Perigee altitude
816.072 km
Semi-major axis
7,305.762 km
Eccentricity
0.01527
Inclination
70.8176°
RAAN
45.4431°
Arg. of periapsis
343.4451°
True anomaly
74.81441°
Mean anomaly
73.1309°
Eccentric anomaly
73.97175°
Mean motion
3.47572 °/min
Orbital period
103.58 mins
BSTAR
0.00012305
Loading maneuver chart data...
Computing Atmospheric mass density...
Loading historical data...
Loading historical data...
Loading historical data...
Loading historical data...
Loading historical data...
Loading historical data...
Loading historical data...

Documentation

Showing up to 5 results
|